Orbital Elements at Epoch 2459200.5 (2020-Dec-17.0) TDB
Reference: JPL 27 (heliocentric ecliptic J2000)
Element | Value | Uncertainty (1-sigma) | Units |
e | .2449199101347858 | 4.0088e-08 | |
a | 2.331364178400392 | 8.71e-09 | au |
q | 1.760366673335109 | 9.3114e-08 | au |
i | 9.226753251378614 | 4.3132e-06 | deg |
node | 292.8046795766665 | 2.4361e-05 | deg |
peri | 50.45918291342591 | 2.6057e-05 | deg |
M | 306.1096292947638 | 1.3851e-05 | deg |
tp | 2459395.135599000378 (2021-Jun-29.63559900) | 5.0897e-05 | TDB |
period | 1300.210310732336 3.56 | 7.2864e-06 1.995e-08 | d yr |
n | .2768782842502087 | 1.5516e-09 | deg/d |
Q | 2.902361683465674 | 1.0843e-08 | au |
|
| | Orbit Determination Parameters
Additional Information
|